Simultaneous Nadir Overpasses (SNOs) Predictions

Prediction of SNOs between GOES-17 and LANDSAT-8 Satellite Orbit:

Table of predicted SNOs for the next 14.0 days since TLE Epoch: 8/1/2025
Index Date Time (GOES-17) GOES-17 Lat,Lon LANDSAT-8 Lat,Lon Distance(km) Time Diff (sec)
1 08/03/2025 16:02:04 0.02, -89.51 -0.31, -87.83 190.49 80
2 08/04/2025 04:26:09 -0.04, -89.48 -0.77, -93.03 402.47 80
3 08/06/2025 04:13:59 -0.03, -89.48 -0.16, -90.07 66.58 80
4 08/08/2025 03:59:09 -0.03, -89.49 0.47, -87.11 269.55 80
5 08/08/2025 16:23:05 0.04, -89.52 0.62, -92.27 313.27 80
6 08/10/2025 16:08:15 0.04, -89.52 -0.01, -89.32 23.38 80
7 08/12/2025 15:56:05 0.03, -89.54 -0.66, -86.37 360.56 80
8 08/13/2025 04:20:09 -0.05, -89.51 -0.47, -91.55 232.14 80
9 08/15/2025 04:05:18 -0.05, -89.52 0.13, -88.59 105.40 80
10 08/15/2025 16:29:14 0.06, -89.56 0.96, -93.75 476.89 80
